Location: Newark
(44.1667°N, 8.2500°E)
Time: 06:06:59
(UTC+00:00)

S-56A Canister/Altair - Pass Details

Date: 19 December 2019
Orbit: 634 x 2498 km, 38.9° (Epoch: 19 January)

Event Time Altitude Azimuth Distance (km) Brightness Sun altitude
Rises 09:04:26 0° 259° (W) 5,258 11.6 15.3°
Reaches altitude 10° 09:07:32 10° 258° (WSW) 4,466 11.3 15.6°
Maximum altitude 09:20:31 71° 178° (S) 2,513 10.7 16.8°
Drops below altitude 10° 09:35:36 10° 98° (E) 5,103 12.3 18.0°
Sets 09:39:25 0° 97° (E) 6,020 12.5 18.3°
